{"data":{"norad_id":67125,"epoch":"2026-09-20T09:25:30.586368Z","epoch_age_seconds":87765,"freshness":"FRESH","line1":"1 67125U 25299Z   26263.39271512  .00003882  00000+0  15051-3 0  9992","line2":"2 67125  43.0011 149.3988 0000600  33.4336 326.6554 15.27580414 42893","mean_motion":15.27580414,"eccentricity":6.0e-5,"inclination_deg":43.0011,"raan_deg":149.3988,"arg_perigee_deg":33.4336,"mean_anomaly_deg":326.6554,"bstar":0.00015051,"rev_number":4289,"period_min":94.266723165776,"perigee_km":482.63618528362,"apogee_km":483.45952746638,"semimajor_km":6861.184856375,"source":"CELESTRAK","updated_at":"2026-09-21T09:00:36.108580Z"}}